Year,Month,Day,Hour,Minute,Value (Times are PST for windspeed in km/hr)
2006,01,28,00,00,27.20
2006,01,28,00,01,29.20
2006,01,28,00,02,32.00
2006,01,28,00,03,32.90
2006,01,28,00,04,29.00
2006,01,28,00,05,31.80
2006,01,28,00,06,31.50
2006,01,28,00,07,35.90
2006,01,28,00,08,25.60
2006,01,28,00,09,22.90
2006,01,28,00,10,32.10
2006,01,28,00,11,36.50
2006,01,28,00,12,35.60
2006,01,28,00,13,29.90
2006,01,28,00,14,31.20
2006,01,28,00,15,33.00
2006,01,28,00,16,25.90
2006,01,28,00,17,20.90
2006,01,28,00,18,20.90
2006,01,28,00,19,20.90
2006,01,28,00,20,20.40
2006,01,28,00,21,36.00
2006,01,28,00,22,43.80
2006,01,28,00,23,32.30
2006,01,28,00,24,36.40
2006,01,28,00,25,37.70
2006,01,28,00,26,35.80
2006,01,28,00,27,41.20
2006,01,28,00,28,29.10
2006,01,28,00,29,27.80
2006,01,28,00,30,28.90
2006,01,28,00,31,33.70
2006,01,28,00,32,29.30
2006,01,28,00,33,28.00
2006,01,28,00,34,35.10
2006,01,28,00,35,29.00
2006,01,28,00,36,28.00
2006,01,28,00,37,38.50
2006,01,28,00,38,41.00
2006,01,28,00,39,24.50
2006,01,28,00,40,31.80
2006,01,28,00,41,41.50
2006,01,28,00,42,36.20
2006,01,28,00,43,25.40
2006,01,28,00,44,29.10
2006,01,28,00,45,42.50
2006,01,28,00,46,35.30
2006,01,28,00,47,28.80
2006,01,28,00,48,35.00
2006,01,28,00,49,28.80
2006,01,28,00,50,41.10
2006,01,28,00,51,36.40
2006,01,28,00,52,34.50
2006,01,28,00,53,39.40
2006,01,28,00,54,26.70
2006,01,28,00,55,27.10
2006,01,28,00,56,33.80
2006,01,28,00,57,28.20
2006,01,28,00,58,30.40
2006,01,28,00,59,35.10
2006,01,28,01,00,37.70
2006,01,28,01,01,28.20
2006,01,28,01,02,35.90
2006,01,28,01,03,30.40
2006,01,28,01,04,30.70
2006,01,28,01,05,27.90
2006,01,28,01,06,30.40
2006,01,28,01,07,39.60
2006,01,28,01,08,32.80
2006,01,28,01,09,26.10
2006,01,28,01,10,40.00
2006,01,28,01,11,31.20
2006,01,28,01,12,36.60
2006,01,28,01,13,39.80
2006,01,28,01,14,61.00
2006,01,28,01,15,39.40
2006,01,28,01,16,27.70
2006,01,28,01,17,37.90
2006,01,28,01,18,29.00
2006,01,28,01,19,29.30
2006,01,28,01,20,36.70
2006,01,28,01,21,32.20
2006,01,28,01,22,29.90
2006,01,28,01,23,32.50
2006,01,28,01,24,23.80
2006,01,28,01,25,24.30
2006,01,28,01,26,38.70
2006,01,28,01,27,30.30
2006,01,28,01,28,31.80
2006,01,28,01,29,33.50
2006,01,28,01,30,38.40
2006,01,28,01,31,36.70
2006,01,28,01,32,34.70
2006,01,28,01,33,30.60
2006,01,28,01,34,24.20
2006,01,28,01,35,22.70
2006,01,28,01,36,28.40
2006,01,28,01,37,23.50
2006,01,28,01,38,29.70
2006,01,28,01,39,23.70
2006,01,28,01,40,31.10
2006,01,28,01,41,31.20
2006,01,28,01,42,41.40
2006,01,28,01,43,38.30
2006,01,28,01,44,32.80
2006,01,28,01,45,32.40
2006,01,28,01,46,30.30
2006,01,28,01,47,40.70
2006,01,28,01,48,36.00
2006,01,28,01,49,28.40
2006,01,28,01,50,34.60
2006,01,28,01,51,36.20
2006,01,28,01,52,22.90
2006,01,28,01,53,35.90
2006,01,28,01,54,36.20
2006,01,28,01,55,39.60
2006,01,28,01,56,38.50
2006,01,28,01,57,39.30
2006,01,28,01,58,33.00
2006,01,28,01,59,31.40
2006,01,28,02,00,31.20
2006,01,28,02,01,36.90
2006,01,28,02,02,39.60
2006,01,28,02,03,29.70
2006,01,28,02,04,24.90
2006,01,28,02,05,36.20
2006,01,28,02,06,26.60
2006,01,28,02,07,27.70
2006,01,28,02,08,45.90
2006,01,28,02,09,37.70
2006,01,28,02,10,39.40
2006,01,28,02,11,39.30
2006,01,28,02,12,38.00
2006,01,28,02,13,33.50
2006,01,28,02,14,43.60
2006,01,28,02,15,33.70
2006,01,28,02,16,32.70
2006,01,28,02,17,34.60
2006,01,28,02,18,27.20
2006,01,28,02,19,28.20
2006,01,28,02,20,36.20
2006,01,28,02,21,38.30
2006,01,28,02,22,32.80
2006,01,28,02,23,23.70
2006,01,28,02,24,17.70
2006,01,28,02,25,22.30
2006,01,28,02,26,33.30
2006,01,28,02,27,35.00
2006,01,28,02,28,32.20
2006,01,28,02,29,34.10
2006,01,28,02,30,33.50
2006,01,28,02,31,29.70
2006,01,28,02,32,29.30
2006,01,28,02,33,45.00
2006,01,28,02,34,43.00
2006,01,28,02,35,38.80
2006,01,28,02,36,30.80
2006,01,28,02,37,30.50
2006,01,28,02,38,24.80
2006,01,28,02,39,35.70
2006,01,28,02,40,26.20
2006,01,28,02,41,42.50
2006,01,28,02,42,31.60
2006,01,28,02,43,31.80
2006,01,28,02,44,30.30
2006,01,28,02,45,32.80
2006,01,28,02,46,37.30
2006,01,28,02,47,32.80
2006,01,28,02,48,33.50
2006,01,28,02,49,24.70
2006,01,28,02,50,39.00
2006,01,28,02,51,37.00
2006,01,28,02,52,30.20
2006,01,28,02,53,27.50
2006,01,28,02,54,31.40
2006,01,28,02,55,29.10
2006,01,28,02,56,30.40
2006,01,28,02,57,30.30
2006,01,28,02,58,28.30
2006,01,28,02,59,27.00
2006,01,28,03,00,23.70
2006,01,28,03,01,27.40
2006,01,28,03,02,26.10
2006,01,28,03,03,33.30
2006,01,28,03,04,34.00
2006,01,28,03,05,38.40
2006,01,28,03,06,38.90
2006,01,28,03,07,31.70
2006,01,28,03,08,27.50
2006,01,28,03,09,25.90
2006,01,28,03,10,26.60
2006,01,28,03,11,33.40
2006,01,28,03,12,22.50
2006,01,28,03,13,25.50
2006,01,28,03,14,21.50
2006,01,28,03,15,27.20
2006,01,28,03,16,33.30
2006,01,28,03,17,30.90
2006,01,28,03,18,24.30
2006,01,28,03,19,28.90
2006,01,28,03,20,35.60
2006,01,28,03,21,24.20
2006,01,28,03,22,34.20
2006,01,28,03,23,24.90
2006,01,28,03,24,26.40
2006,01,28,03,25,32.30
2006,01,28,03,26,35.50
2006,01,28,03,27,34.70
2006,01,28,03,28,29.40
2006,01,28,03,29,32.00
2006,01,28,03,30,29.40
2006,01,28,03,31,32.30
2006,01,28,03,32,36.70
2006,01,28,03,33,26.90
2006,01,28,03,34,28.60
2006,01,28,03,35,35.20
2006,01,28,03,36,21.80
2006,01,28,03,37,21.60
2006,01,28,03,38,29.90
2006,01,28,03,39,27.90
2006,01,28,03,40,27.70
2006,01,28,03,41,22.80
2006,01,28,03,42,32.10
2006,01,28,03,43,27.60
2006,01,28,03,44,27.10
2006,01,28,03,45,34.10
2006,01,28,03,46,30.70
2006,01,28,03,47,35.60
2006,01,28,03,48,33.50
2006,01,28,03,49,29.50
2006,01,28,03,50,26.70
2006,01,28,03,51,34.10
2006,01,28,03,52,24.40
2006,01,28,03,53,23.50
2006,01,28,03,54,21.90
2006,01,28,03,55,23.10
2006,01,28,03,56,30.20
2006,01,28,03,57,16.00
2006,01,28,03,58,22.90
2006,01,28,03,59,16.30
2006,01,28,04,00,23.30
2006,01,28,04,01,21.90
2006,01,28,04,02,14.10
2006,01,28,04,03,18.40
2006,01,28,04,04,19.20
2006,01,28,04,05,18.40
2006,01,28,04,06,7.70
2006,01,28,04,07,14.10
2006,01,28,04,08,13.80
2006,01,28,04,09,12.60
2006,01,28,04,10,18.80
2006,01,28,04,11,13.40
2006,01,28,04,12,8.20
2006,01,28,04,13,12.30
2006,01,28,04,14,18.30
2006,01,28,04,15,13.00
2006,01,28,04,16,13.10
2006,01,28,04,17,14.80
2006,01,28,04,18,15.20
2006,01,28,04,19,17.20
2006,01,28,04,20,16.30
2006,01,28,04,21,18.60
2006,01,28,04,22,18.30
2006,01,28,04,23,11.90
2006,01,28,04,24,17.00
2006,01,28,04,25,15.80
2006,01,28,04,26,19.00
2006,01,28,04,27,9.60
2006,01,28,04,28,14.50
2006,01,28,04,29,16.60
2006,01,28,04,30,14.60
2006,01,28,04,31,13.60
2006,01,28,04,32,14.40
2006,01,28,04,33,19.60
2006,01,28,04,34,11.70
2006,01,28,04,35,11.70
2006,01,28,04,36,17.90
2006,01,28,04,37,18.50
2006,01,28,04,38,9.70
2006,01,28,04,39,8.20
2006,01,28,04,40,8.10
2006,01,28,04,41,8.90
2006,01,28,04,42,8.00
2006,01,28,04,43,11.70
2006,01,28,04,44,7.20
2006,01,28,04,45,3.90
2006,01,28,04,46,7.60
2006,01,28,04,47,8.20
2006,01,28,04,48,6.40
2006,01,28,04,49,1.30
2006,01,28,04,50,2.30
2006,01,28,04,51,7.60
2006,01,28,04,52,1.00
2006,01,28,04,53,5.10
2006,01,28,04,54,3.80
2006,01,28,04,55,4.70
2006,01,28,04,56,1.40
2006,01,28,04,57,4.30
2006,01,28,04,58,5.40
2006,01,28,04,59,6.90
2006,01,28,05,00,5.30
2006,01,28,05,01,7.30
2006,01,28,05,02,4.50
2006,01,28,05,03,2.70
2006,01,28,05,04,2.80
2006,01,28,05,05,3.70
2006,01,28,05,06,8.80
2006,01,28,05,07,6.80
2006,01,28,05,08,8.20
2006,01,28,05,09,6.30
2006,01,28,05,10,6.60
2006,01,28,05,11,13.60
2006,01,28,05,12,29.90
2006,01,28,05,13,19.40
2006,01,28,05,14,20.60
2006,01,28,05,15,18.90
2006,01,28,05,16,17.50
2006,01,28,05,17,25.90
2006,01,28,05,18,27.50
2006,01,28,05,19,21.40
2006,01,28,05,20,17.50
2006,01,28,05,21,14.90
2006,01,28,05,22,16.10
2006,01,28,05,23,15.00
2006,01,28,05,24,14.30
2006,01,28,05,25,25.10
2006,01,28,05,26,14.60
2006,01,28,05,27,9.70
2006,01,28,05,28,10.50
2006,01,28,05,29,5.10
2006,01,28,05,30,1.40
2006,01,28,05,31,4.70
2006,01,28,05,32,13.50
2006,01,28,05,33,8.30
2006,01,28,05,34,14.50
2006,01,28,05,35,15.20
2006,01,28,05,36,11.80
2006,01,28,05,37,11.30
2006,01,28,05,38,8.90
2006,01,28,05,39,4.70
2006,01,28,05,40,1.40
2006,01,28,05,41,5.00
2006,01,28,05,42,2.70
2006,01,28,05,43,6.70
2006,01,28,05,44,9.80
2006,01,28,05,45,3.80
2006,01,28,05,46,1.00
2006,01,28,05,47,2.60
2006,01,28,05,48,4.20
2006,01,28,05,49,2.10
2006,01,28,05,50,8.70
2006,01,28,05,51,6.40
2006,01,28,05,52,3.60
2006,01,28,05,53,1.60
2006,01,28,05,54,3.50
2006,01,28,05,55,7.00
2006,01,28,05,56,4.50
2006,01,28,05,57,8.20
2006,01,28,05,58,3.90
2006,01,28,05,59,4.50
2006,01,28,06,00,11.20
2006,01,28,06,01,8.10
2006,01,28,06,02,3.40
2006,01,28,06,03,4.50
2006,01,28,06,04,4.70
2006,01,28,06,05,3.10
2006,01,28,06,06,2.90
2006,01,28,06,07,5.60
2006,01,28,06,08,11.10
2006,01,28,06,09,5.90
2006,01,28,06,10,8.40
2006,01,28,06,11,5.50
2006,01,28,06,12,3.40
2006,01,28,06,13,2.70
2006,01,28,06,14,0.70
2006,01,28,06,15,3.90
2006,01,28,06,16,1.40
2006,01,28,06,17,6.40
2006,01,28,06,18,7.50
2006,01,28,06,19,12.40
2006,01,28,06,20,13.60
2006,01,28,06,21,3.50
2006,01,28,06,22,6.30
2006,01,28,06,23,11.30
2006,01,28,06,24,14.10
2006,01,28,06,25,17.10
2006,01,28,06,26,10.10
2006,01,28,06,27,6.90
2006,01,28,06,28,13.30
2006,01,28,06,29,12.50
2006,01,28,06,30,9.00
2006,01,28,06,31,5.90
2006,01,28,06,32,5.80
2006,01,28,06,33,15.80
2006,01,28,06,34,17.70
2006,01,28,06,35,10.40
2006,01,28,06,36,4.40
2006,01,28,06,37,5.90
2006,01,28,06,38,8.70
2006,01,28,06,39,8.30
2006,01,28,06,40,3.10
2006,01,28,06,41,5.80
2006,01,28,06,42,3.70
2006,01,28,06,43,4.30
2006,01,28,06,44,3.60
2006,01,28,06,45,5.10
2006,01,28,06,46,6.00
2006,01,28,06,47,2.10
2006,01,28,06,48,3.00
2006,01,28,06,49,2.60
2006,01,28,06,50,11.00
2006,01,28,06,51,4.40
2006,01,28,06,52,14.10
2006,01,28,06,53,8.40
2006,01,28,06,54,4.90
2006,01,28,06,55,3.50
2006,01,28,06,56,6.30
2006,01,28,06,57,8.00
2006,01,28,06,58,2.70
2006,01,28,06,59,5.10
2006,01,28,07,00,4.30
2006,01,28,07,01,9.70
2006,01,28,07,02,6.10
2006,01,28,07,03,6.60
2006,01,28,07,04,8.90
2006,01,28,07,05,10.10
2006,01,28,07,06,5.50
2006,01,28,07,07,4.60
2006,01,28,07,08,4.70
2006,01,28,07,09,9.40
2006,01,28,07,10,2.20
2006,01,28,07,11,2.30
2006,01,28,07,12,8.60
2006,01,28,07,13,5.10
2006,01,28,07,14,4.50
2006,01,28,07,15,8.70
2006,01,28,07,16,15.60
2006,01,28,07,17,2.30
2006,01,28,07,18,3.40
2006,01,28,07,19,2.50
2006,01,28,07,20,2.70
2006,01,28,07,21,7.10
2006,01,28,07,22,14.60
2006,01,28,07,23,5.30
2006,01,28,07,24,6.70
2006,01,28,07,25,9.00
2006,01,28,07,26,4.00
2006,01,28,07,27,3.90
2006,01,28,07,28,2.60
2006,01,28,07,29,2.60
2006,01,28,07,30,3.50
2006,01,28,07,31,6.50
2006,01,28,07,32,10.00
2006,01,28,07,33,11.00
2006,01,28,07,34,6.30
2006,01,28,07,35,6.50
2006,01,28,07,36,7.30
2006,01,28,07,37,3.20
2006,01,28,07,38,3.80
2006,01,28,07,39,8.90
2006,01,28,07,40,5.50
2006,01,28,07,41,4.40
2006,01,28,07,42,6.40
2006,01,28,07,43,10.30
2006,01,28,07,44,22.80
2006,01,28,07,45,21.60
2006,01,28,07,46,13.70
2006,01,28,07,47,14.80
2006,01,28,07,48,17.10
2006,01,28,07,49,8.30
2006,01,28,07,50,12.70
2006,01,28,07,51,6.20
2006,01,28,07,52,12.80
2006,01,28,07,53,9.50
2006,01,28,07,54,14.50
2006,01,28,07,55,13.60
2006,01,28,07,56,7.40
2006,01,28,07,57,11.80
2006,01,28,07,58,9.00
2006,01,28,07,59,5.30
2006,01,28,08,00,13.80
2006,01,28,08,01,9.70
2006,01,28,08,02,12.00
2006,01,28,08,03,12.00
2006,01,28,08,04,15.20
2006,01,28,08,05,12.60
2006,01,28,08,06,17.50
2006,01,28,08,07,16.00
2006,01,28,08,08,14.50
2006,01,28,08,09,18.80
2006,01,28,08,10,11.50
2006,01,28,08,11,3.20
2006,01,28,08,12,10.30
2006,01,28,08,13,14.40
2006,01,28,08,14,4.60
2006,01,28,08,15,3.60
2006,01,28,08,16,4.00
2006,01,28,08,17,10.80
2006,01,28,08,18,9.70
2006,01,28,08,19,7.00
2006,01,28,08,20,11.30
2006,01,28,08,21,9.90
2006,01,28,08,22,18.30
2006,01,28,08,23,12.10
2006,01,28,08,24,14.10
2006,01,28,08,25,11.40
2006,01,28,08,26,7.00
2006,01,28,08,27,10.70
2006,01,28,08,28,9.10
2006,01,28,08,29,9.50
2006,01,28,08,30,4.10
2006,01,28,08,31,13.80
2006,01,28,08,32,16.50
2006,01,28,08,33,11.60
2006,01,28,08,34,8.60
2006,01,28,08,35,5.60
2006,01,28,08,36,3.30
2006,01,28,08,37,4.70
2006,01,28,08,38,9.20
2006,01,28,08,39,10.50
2006,01,28,08,40,5.40
2006,01,28,08,41,8.40
2006,01,28,08,42,8.70
2006,01,28,08,43,6.50
2006,01,28,08,44,5.80
2006,01,28,08,45,1.60
2006,01,28,08,46,6.10
2006,01,28,08,47,8.70
2006,01,28,08,48,7.20
2006,01,28,08,49,0.00
2006,01,28,08,50,4.30
2006,01,28,08,51,2.70
2006,01,28,08,52,3.50
2006,01,28,08,53,3.20
2006,01,28,08,54,2.40
2006,01,28,08,55,0.60
2006,01,28,08,56,2.40
2006,01,28,08,57,3.40
2006,01,28,08,58,1.00
2006,01,28,08,59,1.70
2006,01,28,09,00,2.60
2006,01,28,09,01,2.40
2006,01,28,09,02,1.80
2006,01,28,09,03,1.40
2006,01,28,09,04,0.60
2006,01,28,09,05,1.20
2006,01,28,09,06,2.20
2006,01,28,09,07,4.50
2006,01,28,09,08,4.90
2006,01,28,09,09,3.30
2006,01,28,09,10,1.90
2006,01,28,09,11,1.90
2006,01,28,09,12,4.80
2006,01,28,09,13,5.50
2006,01,28,09,14,3.40
2006,01,28,09,15,0.70
2006,01,28,09,16,1.60
2006,01,28,09,17,2.70
2006,01,28,09,18,3.90
2006,01,28,09,19,2.20
2006,01,28,09,20,2.30
2006,01,28,09,21,6.10
2006,01,28,09,22,8.00
2006,01,28,09,23,5.20
2006,01,28,09,24,9.30
2006,01,28,09,25,5.30
2006,01,28,09,26,7.60
2006,01,28,09,27,1.40
2006,01,28,09,28,0.70
2006,01,28,09,29,9.10
2006,01,28,09,30,6.00
2006,01,28,09,31,4.70
2006,01,28,09,32,7.90
2006,01,28,09,33,5.40
2006,01,28,09,34,4.20
2006,01,28,09,35,3.90
2006,01,28,09,36,3.50
2006,01,28,09,37,4.30
2006,01,28,09,38,4.30
2006,01,28,09,39,2.30
2006,01,28,09,40,0.40
2006,01,28,09,41,0.40
2006,01,28,09,42,4.40
2006,01,28,09,43,6.40
2006,01,28,09,44,9.00
2006,01,28,09,45,7.00
2006,01,28,09,46,5.40
2006,01,28,09,47,5.40
2006,01,28,09,48,4.20
2006,01,28,09,49,1.80
2006,01,28,09,50,5.40
2006,01,28,09,51,5.70
2006,01,28,09,52,7.40
2006,01,28,09,53,12.20
2006,01,28,09,54,7.90
2006,01,28,09,55,6.00
2006,01,28,09,56,6.80
2006,01,28,09,57,10.80
2006,01,28,09,58,9.80
2006,01,28,09,59,15.00
2006,01,28,10,00,21.70
2006,01,28,10,01,14.40
2006,01,28,10,02,8.90
2006,01,28,10,03,12.60
2006,01,28,10,04,11.80
2006,01,28,10,05,15.00
2006,01,28,10,06,9.30
2006,01,28,10,07,16.80
2006,01,28,10,08,10.90
2006,01,28,10,09,7.20
2006,01,28,10,10,9.30
2006,01,28,10,11,10.10
2006,01,28,10,12,13.60
2006,01,28,10,13,8.90
2006,01,28,10,14,7.80
2006,01,28,10,15,7.20
2006,01,28,10,16,13.50
2006,01,28,10,17,8.10
2006,01,28,10,18,3.30
2006,01,28,10,19,4.30
2006,01,28,10,20,8.00
2006,01,28,10,21,14.00
2006,01,28,10,22,7.70
2006,01,28,10,23,7.10
2006,01,28,10,24,9.10
2006,01,28,10,25,7.20
2006,01,28,10,26,4.10
2006,01,28,10,27,2.80
2006,01,28,10,28,2.00
2006,01,28,10,29,0.40
2006,01,28,10,30,4.00
2006,01,28,10,31,4.40
2006,01,28,10,32,3.50
2006,01,28,10,33,5.80
2006,01,28,10,34,7.00
2006,01,28,10,35,4.20
2006,01,28,10,36,2.80
2006,01,28,10,37,2.60
2006,01,28,10,38,3.90
2006,01,28,10,39,5.10
2006,01,28,10,40,2.70
2006,01,28,10,41,4.30
2006,01,28,10,42,3.30
2006,01,28,10,43,2.10
2006,01,28,10,44,4.40
2006,01,28,10,45,6.80
2006,01,28,10,46,5.20
2006,01,28,10,47,8.70
2006,01,28,10,48,8.10
2006,01,28,10,49,5.60
2006,01,28,10,50,3.50
2006,01,28,10,51,2.40
2006,01,28,10,52,1.80
2006,01,28,10,53,1.60
2006,01,28,10,54,7.20
2006,01,28,10,55,3.90
2006,01,28,10,56,6.20
2006,01,28,10,57,10.10
2006,01,28,10,58,5.00
2006,01,28,10,59,8.90
2006,01,28,11,00,10.40
2006,01,28,11,01,6.40
2006,01,28,11,02,9.60
2006,01,28,11,03,9.30
2006,01,28,11,04,0.00
2006,01,28,11,05,5.20
2006,01,28,11,06,7.20
2006,01,28,11,07,3.90
2006,01,28,11,08,2.00
2006,01,28,11,09,7.00
2006,01,28,11,10,2.30
2006,01,28,11,11,4.80
2006,01,28,11,12,7.70
2006,01,28,11,13,7.80
2006,01,28,11,14,7.80
2006,01,28,11,15,3.50
2006,01,28,11,16,5.90
2006,01,28,11,17,7.50
2006,01,28,11,18,3.40
2006,01,28,11,19,4.00
2006,01,28,11,20,3.10
2006,01,28,11,21,6.80
2006,01,28,11,22,6.40
2006,01,28,11,23,6.20
2006,01,28,11,24,5.30
2006,01,28,11,25,6.10
2006,01,28,11,26,1.90
2006,01,28,11,27,7.00
2006,01,28,11,28,3.10
2006,01,28,11,29,5.50
2006,01,28,11,30,5.20
2006,01,28,11,31,9.60
2006,01,28,11,32,6.00
2006,01,28,11,33,3.00
2006,01,28,11,34,5.60
2006,01,28,11,35,4.20
2006,01,28,11,36,2.90
2006,01,28,11,37,1.20
2006,01,28,11,38,3.50
2006,01,28,11,39,6.00
2006,01,28,11,40,6.40
2006,01,28,11,41,4.10
2006,01,28,11,42,6.10
2006,01,28,11,43,2.40
2006,01,28,11,44,5.60
2006,01,28,11,45,4.20
2006,01,28,11,46,4.70
2006,01,28,11,47,2.50
2006,01,28,11,48,0.10
2006,01,28,11,49,0.10
2006,01,28,11,50,0.60
2006,01,28,11,51,0.00
2006,01,28,11,52,4.40
2006,01,28,11,53,7.20
2006,01,28,11,54,6.00
2006,01,28,11,55,6.70
2006,01,28,11,56,9.00
2006,01,28,11,57,4.70
2006,01,28,11,58,5.60
2006,01,28,11,59,4.90
2006,01,28,12,00,4.70
2006,01,28,12,01,4.90
2006,01,28,12,02,6.70
2006,01,28,12,03,8.50
2006,01,28,12,04,13.70
2006,01,28,12,05,12.40
2006,01,28,12,06,9.70
2006,01,28,12,07,8.10
2006,01,28,12,08,10.00
2006,01,28,12,09,8.30
2006,01,28,12,10,11.40
2006,01,28,12,11,8.30
2006,01,28,12,12,8.80
2006,01,28,12,13,10.80
2006,01,28,12,14,15.30
2006,01,28,12,15,11.10
2006,01,28,12,16,10.80
2006,01,28,12,17,8.80
2006,01,28,12,18,9.30
2006,01,28,12,19,6.50
2006,01,28,12,20,5.50
2006,01,28,12,21,1.90
2006,01,28,12,22,0.80
2006,01,28,12,23,0.60
2006,01,28,12,24,0.00
2006,01,28,12,25,0.00
2006,01,28,12,26,0.00
2006,01,28,12,27,0.20
2006,01,28,12,28,1.50
2006,01,28,12,29,0.70
2006,01,28,12,30,0.00
2006,01,28,12,31,0.50
2006,01,28,12,32,0.10
2006,01,28,12,33,0.10
2006,01,28,12,34,0.50
2006,01,28,12,35,1.10
2006,01,28,12,36,2.30
2006,01,28,12,37,7.60
2006,01,28,12,38,5.10
2006,01,28,12,39,9.50
2006,01,28,12,40,5.80
2006,01,28,12,41,1.40
2006,01,28,12,42,0.00
2006,01,28,12,43,0.00
2006,01,28,12,44,0.70
2006,01,28,12,45,2.20
2006,01,28,12,46,0.80
2006,01,28,12,47,2.20
2006,01,28,12,48,2.30
2006,01,28,12,49,4.20
2006,01,28,12,50,3.10
2006,01,28,12,51,4.40
2006,01,28,12,52,10.40
2006,01,28,12,53,6.00
2006,01,28,12,54,1.00
2006,01,28,12,55,3.30
2006,01,28,12,56,4.60
2006,01,28,12,57,10.80
2006,01,28,12,58,11.70
2006,01,28,12,59,5.60
2006,01,28,13,00,9.60
2006,01,28,13,01,8.70
2006,01,28,13,02,12.40
2006,01,28,13,03,9.00
2006,01,28,13,04,8.70
2006,01,28,13,05,10.60
2006,01,28,13,06,6.50
2006,01,28,13,07,1.40
2006,01,28,13,08,6.50
2006,01,28,13,09,3.70
2006,01,28,13,10,4.60
2006,01,28,13,11,8.80
2006,01,28,13,12,7.30
2006,01,28,13,13,3.80
2006,01,28,13,14,7.10
2006,01,28,13,15,12.30
2006,01,28,13,16,6.30
2006,01,28,13,17,3.70
2006,01,28,13,18,0.10
2006,01,28,13,19,1.40
2006,01,28,13,20,2.00
2006,01,28,13,21,1.20
2006,01,28,13,22,2.50
2006,01,28,13,23,1.80
2006,01,28,13,24,5.60
2006,01,28,13,25,4.80
2006,01,28,13,26,3.90
2006,01,28,13,27,4.20
2006,01,28,13,28,4.70
2006,01,28,13,29,7.80
2006,01,28,13,30,4.80
2006,01,28,13,31,12.30
2006,01,28,13,32,7.80
2006,01,28,13,33,5.50
2006,01,28,13,34,9.20
2006,01,28,13,35,13.00
2006,01,28,13,36,10.50
2006,01,28,13,37,12.80
2006,01,28,13,38,11.50
2006,01,28,13,39,9.70
2006,01,28,13,40,5.80
2006,01,28,13,41,4.80
2006,01,28,13,42,6.30
2006,01,28,13,43,2.70
2006,01,28,13,44,3.50
2006,01,28,13,45,2.50
2006,01,28,13,46,4.40
2006,01,28,13,47,1.30
2006,01,28,13,48,0.20
2006,01,28,13,49,1.90
2006,01,28,13,50,0.80
2006,01,28,13,51,4.20
2006,01,28,13,52,1.60
2006,01,28,13,53,2.60
2006,01,28,13,54,2.60
2006,01,28,13,55,2.10
2006,01,28,13,56,0.30
2006,01,28,13,57,0.10
2006,01,28,13,58,0.90
2006,01,28,13,59,1.30
2006,01,28,14,00,1.90
2006,01,28,14,01,5.50
2006,01,28,14,02,5.60
2006,01,28,14,03,5.60
2006,01,28,14,04,6.40
2006,01,28,14,05,4.00
2006,01,28,14,06,0.20
2006,01,28,14,07,2.40
2006,01,28,14,08,7.50
2006,01,28,14,09,3.60
2006,01,28,14,10,4.50
2006,01,28,14,11,1.90
2006,01,28,14,12,1.70
2006,01,28,14,13,3.90
2006,01,28,14,14,2.60
2006,01,28,14,15,3.70
2006,01,28,14,16,0.70
2006,01,28,14,17,0.10
2006,01,28,14,18,3.60
2006,01,28,14,19,1.80
2006,01,28,14,20,1.40
2006,01,28,14,21,0.40
2006,01,28,14,22,0.10
2006,01,28,14,23,0.60
2006,01,28,14,24,1.20
2006,01,28,14,25,0.70
2006,01,28,14,26,3.30
2006,01,28,14,27,3.70
2006,01,28,14,28,3.10
2006,01,28,14,29,2.60
2006,01,28,14,30,3.50
2006,01,28,14,31,1.40
2006,01,28,14,32,2.20
2006,01,28,14,33,4.10
2006,01,28,14,34,5.50
2006,01,28,14,35,4.20
2006,01,28,14,36,1.90
2006,01,28,14,37,1.50
2006,01,28,14,38,5.40
2006,01,28,14,39,5.70
2006,01,28,14,40,0.70
2006,01,28,14,41,2.40
2006,01,28,14,42,5.00
2006,01,28,14,43,2.50
2006,01,28,14,44,1.20
2006,01,28,14,45,0.30
2006,01,28,14,46,0.60
2006,01,28,14,47,6.40
2006,01,28,14,48,0.90
2006,01,28,14,49,4.90
2006,01,28,14,50,3.60
2006,01,28,14,51,1.50
2006,01,28,14,52,0.30
2006,01,28,14,53,2.90
2006,01,28,14,54,0.50
2006,01,28,14,55,1.50
2006,01,28,14,56,4.80
2006,01,28,14,57,5.40
2006,01,28,14,58,7.30
2006,01,28,14,59,7.20
2006,01,28,15,00,4.30
2006,01,28,15,01,4.30
2006,01,28,15,02,6.00
2006,01,28,15,03,7.20
2006,01,28,15,04,3.10
2006,01,28,15,05,1.60
2006,01,28,15,06,4.90
2006,01,28,15,07,6.80
2006,01,28,15,08,7.50
2006,01,28,15,09,6.20
2006,01,28,15,10,1.00
2006,01,28,15,11,1.80
2006,01,28,15,12,6.80
2006,01,28,15,13,4.50
2006,01,28,15,14,5.20
2006,01,28,15,15,8.10
2006,01,28,15,16,2.70
2006,01,28,15,17,2.60
2006,01,28,15,18,3.70
2006,01,28,15,19,0.80
2006,01,28,15,20,0.20
2006,01,28,15,21,0.00
2006,01,28,15,22,0.10
2006,01,28,15,23,0.80
2006,01,28,15,24,3.30
2006,01,28,15,25,8.50
2006,01,28,15,26,3.90
2006,01,28,15,27,2.20
2006,01,28,15,28,2.70
2006,01,28,15,29,1.10
2006,01,28,15,30,0.70
2006,01,28,15,31,0.20
2006,01,28,15,32,3.60
2006,01,28,15,33,5.80
2006,01,28,15,34,2.70
2006,01,28,15,35,6.30
2006,01,28,15,36,3.00
2006,01,28,15,37,3.50
2006,01,28,15,38,0.60
2006,01,28,15,39,3.80
2006,01,28,15,40,1.40
2006,01,28,15,41,3.10
2006,01,28,15,42,3.00
2006,01,28,15,43,2.30
2006,01,28,15,44,2.10
2006,01,28,15,45,4.10
2006,01,28,15,46,6.10
2006,01,28,15,47,4.50
2006,01,28,15,48,2.00
2006,01,28,15,49,5.80
2006,01,28,15,50,5.20
2006,01,28,15,51,7.10
2006,01,28,15,52,3.50
2006,01,28,15,53,1.40
2006,01,28,15,54,1.90
2006,01,28,15,55,2.00
2006,01,28,15,56,2.60
2006,01,28,15,57,2.50
2006,01,28,15,58,3.90
2006,01,28,15,59,5.40
2006,01,28,16,00,6.00
2006,01,28,16,01,3.00
2006,01,28,16,02,2.20
2006,01,28,16,03,3.60
2006,01,28,16,04,5.30
2006,01,28,16,05,2.70
2006,01,28,16,06,1.20
2006,01,28,16,07,0.20
2006,01,28,16,08,0.00
2006,01,28,16,09,0.20
2006,01,28,16,10,2.60
2006,01,28,16,11,0.20
2006,01,28,16,12,0.50
2006,01,28,16,13,1.10
2006,01,28,16,14,0.50
2006,01,28,16,15,1.20
2006,01,28,16,16,0.00
2006,01,28,16,17,0.00
2006,01,28,16,18,2.50
2006,01,28,16,19,1.40
2006,01,28,16,20,0.00
2006,01,28,16,21,2.60
2006,01,28,16,22,0.40
2006,01,28,16,23,0.10
2006,01,28,16,24,0.80
2006,01,28,16,25,0.80
2006,01,28,16,26,0.00
2006,01,28,16,27,0.10
2006,01,28,16,28,0.00
2006,01,28,16,29,0.20
2006,01,28,16,30,0.00
2006,01,28,16,31,0.00
2006,01,28,16,32,0.30
2006,01,28,16,33,1.80
2006,01,28,16,34,1.40
2006,01,28,16,35,0.30
2006,01,28,16,36,0.80
2006,01,28,16,37,0.00
2006,01,28,16,38,1.20
2006,01,28,16,39,1.40
2006,01,28,16,40,2.60
2006,01,28,16,41,2.40
2006,01,28,16,42,6.00
2006,01,28,16,43,2.50
2006,01,28,16,44,1.50
2006,01,28,16,45,2.30
2006,01,28,16,46,1.80
2006,01,28,16,47,3.30
2006,01,28,16,48,0.10
2006,01,28,16,49,0.00
2006,01,28,16,50,1.80
2006,01,28,16,51,1.80
2006,01,28,16,52,0.30
2006,01,28,16,53,6.70
2006,01,28,16,54,3.90
2006,01,28,16,55,0.20
2006,01,28,16,56,2.20
2006,01,28,16,57,0.20
2006,01,28,16,58,0.50
2006,01,28,16,59,1.40
2006,01,28,17,00,2.30
2006,01,28,17,01,0.70
2006,01,28,17,02,1.80
2006,01,28,17,03,6.10
2006,01,28,17,04,2.70
2006,01,28,17,05,0.30
2006,01,28,17,06,2.20
2006,01,28,17,07,2.00
2006,01,28,17,08,3.70
2006,01,28,17,09,2.00
2006,01,28,17,10,5.40
2006,01,28,17,11,6.20
2006,01,28,17,12,2.20
2006,01,28,17,13,5.50
2006,01,28,17,14,0.80
2006,01,28,17,15,3.80
2006,01,28,17,16,1.50
2006,01,28,17,17,2.50
2006,01,28,17,18,7.00
2006,01,28,17,19,6.20
2006,01,28,17,20,4.70
2006,01,28,17,21,6.00
2006,01,28,17,22,8.50
2006,01,28,17,23,9.00
2006,01,28,17,24,5.60
2006,01,28,17,25,6.00
2006,01,28,17,26,6.50
2006,01,28,17,27,1.90
2006,01,28,17,28,6.50
2006,01,28,17,29,6.40
2006,01,28,17,30,2.80
2006,01,28,17,31,3.60
2006,01,28,17,32,5.00
2006,01,28,17,33,7.20
2006,01,28,17,34,4.10
2006,01,28,17,35,10.50
2006,01,28,17,36,8.60
2006,01,28,17,37,7.70
2006,01,28,17,38,5.00
2006,01,28,17,39,5.70
2006,01,28,17,40,3.40
2006,01,28,17,41,5.40
2006,01,28,17,42,5.80
2006,01,28,17,43,9.00
2006,01,28,17,44,6.70
2006,01,28,17,45,4.70
2006,01,28,17,46,0.20
2006,01,28,17,47,1.40
2006,01,28,17,48,2.00
2006,01,28,17,49,6.30